Year,Month,Day,Hour,Minute,Value (Times are PST for temperature in C)
2015,06,30,00,00,21.80
2015,06,30,00,01,21.80
2015,06,30,00,02,21.80
2015,06,30,00,03,21.70
2015,06,30,00,04,21.70
2015,06,30,00,05,21.70
2015,06,30,00,06,21.60
2015,06,30,00,07,21.60
2015,06,30,00,08,21.60
2015,06,30,00,09,21.60
2015,06,30,00,10,21.60
2015,06,30,00,11,21.60
2015,06,30,00,12,21.60
2015,06,30,00,13,21.70
2015,06,30,00,14,21.70
2015,06,30,00,15,21.80
2015,06,30,00,16,21.80
2015,06,30,00,17,21.80
2015,06,30,00,18,21.90
2015,06,30,00,19,22.00
2015,06,30,00,20,22.00
2015,06,30,00,21,22.10
2015,06,30,00,22,22.10
2015,06,30,00,23,22.20
2015,06,30,00,24,22.20
2015,06,30,00,25,22.30
2015,06,30,00,26,22.30
2015,06,30,00,27,22.40
2015,06,30,00,28,22.50
2015,06,30,00,29,22.50
2015,06,30,00,30,22.60
2015,06,30,00,31,22.60
2015,06,30,00,32,22.70
2015,06,30,00,33,22.70
2015,06,30,00,34,22.70
2015,06,30,00,35,22.70
2015,06,30,00,36,22.70
2015,06,30,00,37,22.70
2015,06,30,00,38,22.70
2015,06,30,00,39,22.70
2015,06,30,00,40,22.70
2015,06,30,00,41,22.70
2015,06,30,00,42,22.70
2015,06,30,00,43,22.70
2015,06,30,00,44,22.70
2015,06,30,00,45,22.70
2015,06,30,00,46,22.60
2015,06,30,00,47,22.60
2015,06,30,00,48,22.60
2015,06,30,00,49,22.60
2015,06,30,00,50,22.60
2015,06,30,00,51,22.50
2015,06,30,00,52,22.50
2015,06,30,00,53,22.50
2015,06,30,00,54,22.50
2015,06,30,00,55,22.40
2015,06,30,00,56,22.40
2015,06,30,00,57,22.40
2015,06,30,00,58,22.40
2015,06,30,00,59,22.40
2015,06,30,01,00,22.40
2015,06,30,01,01,22.40
2015,06,30,01,02,22.50
2015,06,30,01,03,22.50
2015,06,30,01,04,22.50
2015,06,30,01,05,22.50
2015,06,30,01,06,22.50
2015,06,30,01,07,22.50
2015,06,30,01,08,22.50
2015,06,30,01,09,22.50
2015,06,30,01,10,22.50
2015,06,30,01,11,22.50
2015,06,30,01,12,22.50
2015,06,30,01,13,22.50
2015,06,30,01,14,22.40
2015,06,30,01,15,22.40
2015,06,30,01,16,22.40
2015,06,30,01,17,22.40
2015,06,30,01,18,22.40
2015,06,30,01,19,22.30
2015,06,30,01,20,22.30
2015,06,30,01,21,22.30
2015,06,30,01,22,22.20
2015,06,30,01,23,22.20
2015,06,30,01,24,22.10
2015,06,30,01,25,22.00
2015,06,30,01,26,22.00
2015,06,30,01,27,21.90
2015,06,30,01,28,21.90
2015,06,30,01,29,21.80
2015,06,30,01,30,21.80
2015,06,30,01,31,21.80
2015,06,30,01,32,21.80
2015,06,30,01,33,21.80
2015,06,30,01,34,21.70
2015,06,30,01,35,21.80
2015,06,30,01,36,21.80
2015,06,30,01,37,21.80
2015,06,30,01,38,21.80
2015,06,30,01,39,21.80
2015,06,30,01,40,21.80
2015,06,30,01,41,21.80
2015,06,30,01,42,21.80
2015,06,30,01,43,21.80
2015,06,30,01,44,21.80
2015,06,30,01,45,21.80
2015,06,30,01,46,21.80
2015,06,30,01,47,21.80
2015,06,30,01,48,21.80
2015,06,30,01,49,21.80
2015,06,30,01,50,21.80
2015,06,30,01,51,21.80
2015,06,30,01,52,21.80
2015,06,30,01,53,21.80
2015,06,30,01,54,21.80
2015,06,30,01,55,21.80
2015,06,30,01,56,21.80
2015,06,30,01,57,21.80
2015,06,30,01,58,21.80
2015,06,30,01,59,21.80
2015,06,30,02,00,21.80
2015,06,30,02,01,21.80
2015,06,30,02,02,21.80
2015,06,30,02,03,21.80
2015,06,30,02,04,21.80
2015,06,30,02,05,21.80
2015,06,30,02,06,21.80
2015,06,30,02,07,21.80
2015,06,30,02,08,21.80
2015,06,30,02,09,21.80
2015,06,30,02,10,21.80
2015,06,30,02,11,21.80
2015,06,30,02,12,21.80
2015,06,30,02,13,21.80
2015,06,30,02,14,21.70
2015,06,30,02,15,21.70
2015,06,30,02,16,21.70
2015,06,30,02,17,21.70
2015,06,30,02,18,21.70
2015,06,30,02,19,21.60
2015,06,30,02,20,21.60
2015,06,30,02,21,21.60
2015,06,30,02,22,21.60
2015,06,30,02,23,21.60
2015,06,30,02,24,21.50
2015,06,30,02,25,21.50
2015,06,30,02,26,21.50
2015,06,30,02,27,21.50
2015,06,30,02,28,21.40
2015,06,30,02,29,21.40
2015,06,30,02,30,21.40
2015,06,30,02,31,21.40
2015,06,30,02,32,21.30
2015,06,30,02,33,21.30
2015,06,30,02,34,21.30
2015,06,30,02,35,21.30
2015,06,30,02,36,21.20
2015,06,30,02,37,21.20
2015,06,30,02,38,21.20
2015,06,30,02,39,21.20
2015,06,30,02,40,21.20
2015,06,30,02,41,21.10
2015,06,30,02,42,21.10
2015,06,30,02,43,21.10
2015,06,30,02,44,21.10
2015,06,30,02,45,21.00
2015,06,30,02,46,21.00
2015,06,30,02,47,21.00
2015,06,30,02,48,21.00
2015,06,30,02,49,21.00
2015,06,30,02,50,21.00
2015,06,30,02,51,21.00
2015,06,30,02,52,21.00
2015,06,30,02,53,21.00
2015,06,30,02,54,21.00
2015,06,30,02,55,20.90
2015,06,30,02,56,20.90
2015,06,30,02,57,20.90
2015,06,30,02,58,20.90
2015,06,30,02,59,20.90
2015,06,30,03,00,20.90
2015,06,30,03,01,20.80
2015,06,30,03,02,20.80
2015,06,30,03,03,20.80
2015,06,30,03,04,20.80
2015,06,30,03,05,20.80
2015,06,30,03,06,20.80
2015,06,30,03,07,20.80
2015,06,30,03,08,20.80
2015,06,30,03,09,20.80
2015,06,30,03,10,20.80
2015,06,30,03,11,20.80
2015,06,30,03,12,20.70
2015,06,30,03,13,20.70
2015,06,30,03,14,20.70
2015,06,30,03,15,20.70
2015,06,30,03,16,20.60
2015,06,30,03,17,20.60
2015,06,30,03,18,20.60
2015,06,30,03,19,20.60
2015,06,30,03,20,20.50
2015,06,30,03,21,20.50
2015,06,30,03,22,20.50
2015,06,30,03,23,20.50
2015,06,30,03,24,20.50
2015,06,30,03,25,20.40
2015,06,30,03,26,20.40
2015,06,30,03,27,20.50
2015,06,30,03,28,20.50
2015,06,30,03,29,20.50
2015,06,30,03,30,20.50
2015,06,30,03,31,20.50
2015,06,30,03,32,20.40
2015,06,30,03,33,20.40
2015,06,30,03,34,20.40
2015,06,30,03,35,20.40
2015,06,30,03,36,20.40
2015,06,30,03,37,20.40
2015,06,30,03,38,20.30
2015,06,30,03,39,20.30
2015,06,30,03,40,20.30
2015,06,30,03,41,20.30
2015,06,30,03,42,20.30
2015,06,30,03,43,20.20
2015,06,30,03,44,20.20
2015,06,30,03,45,20.20
2015,06,30,03,46,20.20
2015,06,30,03,47,20.10
2015,06,30,03,48,20.10
2015,06,30,03,49,20.10
2015,06,30,03,50,20.10
2015,06,30,03,51,20.10
2015,06,30,03,52,20.10
2015,06,30,03,53,20.10
2015,06,30,03,54,20.10
2015,06,30,03,55,20.10
2015,06,30,03,56,20.10
2015,06,30,03,57,20.10
2015,06,30,03,58,20.10
2015,06,30,03,59,20.10
2015,06,30,04,00,20.10
2015,06,30,04,01,20.10
2015,06,30,04,02,20.10
2015,06,30,04,03,20.10
2015,06,30,04,04,20.10
2015,06,30,04,05,20.10
2015,06,30,04,06,20.10
2015,06,30,04,07,20.10
2015,06,30,04,08,20.10
2015,06,30,04,09,20.10
2015,06,30,04,10,20.10
2015,06,30,04,11,20.00
2015,06,30,04,12,20.00
2015,06,30,04,13,20.00
2015,06,30,04,14,19.90
2015,06,30,04,15,19.90
2015,06,30,04,16,19.80
2015,06,30,04,17,19.80
2015,06,30,04,18,19.70
2015,06,30,04,19,19.70
2015,06,30,04,20,19.70
2015,06,30,04,21,19.60
2015,06,30,04,22,19.60
2015,06,30,04,23,19.50
2015,06,30,04,24,19.50
2015,06,30,04,25,19.40
2015,06,30,04,26,19.30
2015,06,30,04,27,19.20
2015,06,30,04,28,19.10
2015,06,30,04,29,19.00
2015,06,30,04,30,18.90
2015,06,30,04,31,18.90
2015,06,30,04,32,18.80
2015,06,30,04,33,18.70
2015,06,30,04,34,18.60
2015,06,30,04,35,18.50
2015,06,30,04,36,18.50
2015,06,30,04,37,18.40
2015,06,30,04,38,18.40
2015,06,30,04,39,18.30
2015,06,30,04,40,18.30
2015,06,30,04,41,18.20
2015,06,30,04,42,18.20
2015,06,30,04,43,18.10
2015,06,30,04,44,18.10
2015,06,30,04,45,18.10
2015,06,30,04,46,18.00
2015,06,30,04,47,18.00
2015,06,30,04,48,17.90
2015,06,30,04,49,17.90
2015,06,30,04,50,17.80
2015,06,30,04,51,17.80
2015,06,30,04,52,17.80
2015,06,30,04,53,17.70
2015,06,30,04,54,17.70
2015,06,30,04,55,17.70
2015,06,30,04,56,17.70
2015,06,30,04,57,17.60
2015,06,30,04,58,17.60
2015,06,30,04,59,17.60
2015,06,30,05,00,17.60
2015,06,30,05,01,17.60
2015,06,30,05,02,17.50
2015,06,30,05,03,17.50
2015,06,30,05,04,17.50
2015,06,30,05,05,17.50
2015,06,30,05,06,17.40
2015,06,30,05,07,17.40
2015,06,30,05,08,17.40
2015,06,30,05,09,17.40
2015,06,30,05,10,17.40
2015,06,30,05,11,17.40
2015,06,30,05,12,17.30
2015,06,30,05,13,17.30
2015,06,30,05,14,17.30
2015,06,30,05,15,17.30
2015,06,30,05,16,17.20
2015,06,30,05,17,17.20
2015,06,30,05,18,17.20
2015,06,30,05,19,17.20
2015,06,30,05,20,17.20
2015,06,30,05,21,17.20
2015,06,30,05,22,17.10
2015,06,30,05,23,17.10
2015,06,30,05,24,17.10
2015,06,30,05,25,17.10
2015,06,30,05,26,17.10
2015,06,30,05,27,17.10
2015,06,30,05,28,17.10
2015,06,30,05,29,17.10
2015,06,30,05,30,17.10
2015,06,30,05,31,17.00
2015,06,30,05,32,17.00
2015,06,30,05,33,17.00
2015,06,30,05,34,17.00
2015,06,30,05,35,17.00
2015,06,30,05,36,16.90
2015,06,30,05,37,16.90
2015,06,30,05,38,16.90
2015,06,30,05,39,16.90
2015,06,30,05,40,16.90
2015,06,30,05,41,16.90
2015,06,30,05,42,16.90
2015,06,30,05,43,16.90
2015,06,30,05,44,16.90
2015,06,30,05,45,16.90
2015,06,30,05,46,16.90
2015,06,30,05,47,16.90
2015,06,30,05,48,16.90
2015,06,30,05,49,16.90
2015,06,30,05,50,16.90
2015,06,30,05,51,16.90
2015,06,30,05,52,16.90
2015,06,30,05,53,16.90
2015,06,30,05,54,16.90
2015,06,30,05,55,16.90
2015,06,30,05,56,16.90
2015,06,30,05,57,16.90
2015,06,30,05,58,16.90
2015,06,30,05,59,16.90
2015,06,30,06,00,16.90
2015,06,30,06,01,16.90
2015,06,30,06,02,16.90
2015,06,30,06,03,16.90
2015,06,30,06,04,16.90
2015,06,30,06,05,16.90
2015,06,30,06,06,16.90
2015,06,30,06,07,16.90
2015,06,30,06,08,16.90
2015,06,30,06,09,17.00
2015,06,30,06,10,17.00
2015,06,30,06,11,17.10
2015,06,30,06,12,17.10
2015,06,30,06,13,17.10
2015,06,30,06,14,17.20
2015,06,30,06,15,17.20
2015,06,30,06,16,17.20
2015,06,30,06,17,17.30
2015,06,30,06,18,17.30
2015,06,30,06,19,17.30
2015,06,30,06,20,17.40
2015,06,30,06,21,17.40
2015,06,30,06,22,17.40
2015,06,30,06,23,17.50
2015,06,30,06,24,17.50
2015,06,30,06,25,17.50
2015,06,30,06,26,17.50
2015,06,30,06,27,17.50
2015,06,30,06,28,17.60
2015,06,30,06,29,17.60
2015,06,30,06,30,17.60
2015,06,30,06,31,17.60
2015,06,30,06,32,17.70
2015,06,30,06,33,17.70
2015,06,30,06,34,17.80
2015,06,30,06,35,17.80
2015,06,30,06,36,17.90
2015,06,30,06,37,18.00
2015,06,30,06,38,18.20
2015,06,30,06,39,18.30
2015,06,30,06,40,18.40
2015,06,30,06,41,18.60
2015,06,30,06,42,18.70
2015,06,30,06,43,18.80
2015,06,30,06,44,19.00
2015,06,30,06,45,19.10
2015,06,30,06,46,19.20
2015,06,30,06,47,19.30
2015,06,30,06,48,19.30
2015,06,30,06,49,19.40
2015,06,30,06,50,19.50
2015,06,30,06,51,19.60
2015,06,30,06,52,19.70
2015,06,30,06,53,19.80
2015,06,30,06,54,19.90
2015,06,30,06,55,19.90
2015,06,30,06,56,20.00
2015,06,30,06,57,20.10
2015,06,30,06,58,20.20
2015,06,30,06,59,20.30
2015,06,30,07,00,20.40
2015,06,30,07,01,20.50
2015,06,30,07,02,20.60
2015,06,30,07,03,20.70
2015,06,30,07,04,20.80
2015,06,30,07,05,20.80
2015,06,30,07,06,20.90
2015,06,30,07,07,20.90
2015,06,30,07,08,21.00
2015,06,30,07,09,21.10
2015,06,30,07,10,21.10
2015,06,30,07,11,21.20
2015,06,30,07,12,21.20
2015,06,30,07,13,21.10
2015,06,30,07,14,21.10
2015,06,30,07,15,21.00
2015,06,30,07,16,21.00
2015,06,30,07,17,20.90
2015,06,30,07,18,20.80
2015,06,30,07,19,20.70
2015,06,30,07,20,20.70
2015,06,30,07,21,20.60
2015,06,30,07,22,20.60
2015,06,30,07,23,20.60
2015,06,30,07,24,20.60
2015,06,30,07,25,20.60
2015,06,30,07,26,20.60
2015,06,30,07,27,20.60
2015,06,30,07,28,20.60
2015,06,30,07,29,20.50
2015,06,30,07,30,20.50
2015,06,30,07,31,20.50
2015,06,30,07,32,20.60
2015,06,30,07,33,20.60
2015,06,30,07,34,20.60
2015,06,30,07,35,20.70
2015,06,30,07,36,20.80
2015,06,30,07,37,20.80
2015,06,30,07,38,20.80
2015,06,30,07,39,20.90
2015,06,30,07,40,20.90
2015,06,30,07,41,20.90
2015,06,30,07,42,20.90
2015,06,30,07,43,20.90
2015,06,30,07,44,20.90
2015,06,30,07,45,21.00
2015,06,30,07,46,21.00
2015,06,30,07,47,21.10
2015,06,30,07,48,21.20
2015,06,30,07,49,21.30
2015,06,30,07,50,21.30
2015,06,30,07,51,21.30
2015,06,30,07,52,21.30
2015,06,30,07,53,21.30
2015,06,30,07,54,21.40
2015,06,30,07,55,21.40
2015,06,30,07,56,21.40
2015,06,30,07,57,21.40
2015,06,30,07,58,21.40
2015,06,30,07,59,21.50
2015,06,30,08,00,21.50
2015,06,30,08,01,21.60
2015,06,30,08,02,21.60
2015,06,30,08,03,21.50
2015,06,30,08,04,21.50
2015,06,30,08,05,21.40
2015,06,30,08,06,21.30
2015,06,30,08,07,21.30
2015,06,30,08,08,21.30
2015,06,30,08,09,21.30
2015,06,30,08,10,21.30
2015,06,30,08,11,21.20
2015,06,30,08,12,21.20
2015,06,30,08,13,21.20
2015,06,30,08,14,21.20
2015,06,30,08,15,21.20
2015,06,30,08,16,21.10
2015,06,30,08,17,21.10
2015,06,30,08,18,21.10
2015,06,30,08,19,21.10
2015,06,30,08,20,21.10
2015,06,30,08,21,21.00
2015,06,30,08,22,21.00
2015,06,30,08,23,21.00
2015,06,30,08,24,20.90
2015,06,30,08,25,20.90
2015,06,30,08,26,21.00
2015,06,30,08,27,21.00
2015,06,30,08,28,21.00
2015,06,30,08,29,21.10
2015,06,30,08,30,21.10
2015,06,30,08,31,21.20
2015,06,30,08,32,21.20
2015,06,30,08,33,21.30
2015,06,30,08,34,21.30
2015,06,30,08,35,21.30
2015,06,30,08,36,21.30
2015,06,30,08,37,21.30
2015,06,30,08,38,21.30
2015,06,30,08,39,21.40
2015,06,30,08,40,21.40
2015,06,30,08,41,21.40
2015,06,30,08,42,21.50
2015,06,30,08,43,21.50
2015,06,30,08,44,21.60
2015,06,30,08,45,21.60
2015,06,30,08,46,21.50
2015,06,30,08,47,21.40
2015,06,30,08,48,21.40
2015,06,30,08,49,21.40
2015,06,30,08,50,21.40
2015,06,30,08,51,21.30
2015,06,30,08,52,21.40
2015,06,30,08,53,21.30
2015,06,30,08,54,21.40
2015,06,30,08,55,21.40
2015,06,30,08,56,21.40
2015,06,30,08,57,21.50
2015,06,30,08,58,21.50
2015,06,30,08,59,21.60
2015,06,30,09,00,21.60
2015,06,30,09,01,21.60
2015,06,30,09,02,21.60
2015,06,30,09,03,21.60
2015,06,30,09,04,21.60
2015,06,30,09,05,21.60
2015,06,30,09,06,21.60
2015,06,30,09,07,21.60
2015,06,30,09,08,21.60
2015,06,30,09,09,21.60
2015,06,30,09,10,21.60
2015,06,30,09,11,21.60
2015,06,30,09,12,21.60
2015,06,30,09,13,21.60
2015,06,30,09,14,21.60
2015,06,30,09,15,21.70
2015,06,30,09,16,21.80
2015,06,30,09,17,21.90
2015,06,30,09,18,22.00
2015,06,30,09,19,22.10
2015,06,30,09,20,22.10
2015,06,30,09,21,22.10
2015,06,30,09,22,22.10
2015,06,30,09,23,22.00
2015,06,30,09,24,22.00
2015,06,30,09,25,21.90
2015,06,30,09,26,21.90
2015,06,30,09,27,21.90
2015,06,30,09,28,21.90
2015,06,30,09,29,21.90
2015,06,30,09,30,22.00
2015,06,30,09,31,22.00
2015,06,30,09,32,22.10
2015,06,30,09,33,22.10
2015,06,30,09,34,22.00
2015,06,30,09,35,21.90
2015,06,30,09,36,21.90
2015,06,30,09,37,21.90
2015,06,30,09,38,21.90
2015,06,30,09,39,21.90
2015,06,30,09,40,21.90
2015,06,30,09,41,21.90
2015,06,30,09,42,21.90
2015,06,30,09,43,21.90
2015,06,30,09,44,21.80
2015,06,30,09,45,21.80
2015,06,30,09,46,21.90
2015,06,30,09,47,22.00
2015,06,30,09,48,22.10
2015,06,30,09,49,22.20
2015,06,30,09,50,22.30
2015,06,30,09,51,22.30
2015,06,30,09,52,22.30
2015,06,30,09,53,22.20
2015,06,30,09,54,22.10
2015,06,30,09,55,22.10
2015,06,30,09,56,22.10
2015,06,30,09,57,22.00
2015,06,30,09,58,21.90
2015,06,30,09,59,21.80
2015,06,30,10,00,21.80
2015,06,30,10,01,21.80
2015,06,30,10,02,21.80
2015,06,30,10,03,21.80
2015,06,30,10,04,21.90
2015,06,30,10,05,22.00
2015,06,30,10,06,22.00
2015,06,30,10,07,22.10
2015,06,30,10,08,22.20
2015,06,30,10,09,22.30
2015,06,30,10,10,22.40
2015,06,30,10,11,22.50
2015,06,30,10,12,22.50
2015,06,30,10,13,22.50
2015,06,30,10,14,22.50
2015,06,30,10,15,22.40
2015,06,30,10,16,22.40
2015,06,30,10,17,22.40
2015,06,30,10,18,22.40
2015,06,30,10,19,22.40
2015,06,30,10,20,22.40
2015,06,30,10,21,22.40
2015,06,30,10,22,22.40
2015,06,30,10,23,22.40
2015,06,30,10,24,22.40
2015,06,30,10,25,22.40
2015,06,30,10,26,22.40
2015,06,30,10,27,22.40
2015,06,30,10,28,22.40
2015,06,30,10,29,22.50
2015,06,30,10,30,22.50
2015,06,30,10,31,22.50
2015,06,30,10,32,22.50
2015,06,30,10,33,22.50
2015,06,30,10,34,22.50
2015,06,30,10,35,22.40
2015,06,30,10,36,22.30
2015,06,30,10,37,22.20
2015,06,30,10,38,22.20
2015,06,30,10,39,22.20
2015,06,30,10,40,22.20
2015,06,30,10,41,22.30
2015,06,30,10,42,22.30
2015,06,30,10,43,22.30
2015,06,30,10,44,22.30
2015,06,30,10,45,22.30
2015,06,30,10,46,22.20
2015,06,30,10,47,22.20
2015,06,30,10,48,22.10
2015,06,30,10,49,22.10
2015,06,30,10,50,22.00
2015,06,30,10,51,22.00
2015,06,30,10,52,22.10
2015,06,30,10,53,22.20
2015,06,30,10,54,22.30
2015,06,30,10,55,22.40
2015,06,30,10,56,22.50
2015,06,30,10,57,22.60
2015,06,30,10,58,22.70
2015,06,30,10,59,22.70
2015,06,30,11,00,22.70
2015,06,30,11,01,22.70
2015,06,30,11,02,22.70
2015,06,30,11,03,22.60
2015,06,30,11,04,22.60
2015,06,30,11,05,22.60
2015,06,30,11,06,22.60
2015,06,30,11,07,22.60
2015,06,30,11,08,22.60
2015,06,30,11,09,22.60
2015,06,30,11,10,22.60
2015,06,30,11,11,22.70
2015,06,30,11,12,22.70
2015,06,30,11,13,22.70
2015,06,30,11,14,22.80
2015,06,30,11,15,22.90
2015,06,30,11,16,23.00
2015,06,30,11,17,23.10
2015,06,30,11,18,23.20
2015,06,30,11,19,23.30
2015,06,30,11,20,23.30
2015,06,30,11,21,23.30
2015,06,30,11,22,23.40
2015,06,30,11,23,23.40
2015,06,30,11,24,23.50
2015,06,30,11,25,23.50
2015,06,30,11,26,23.60
2015,06,30,11,27,23.70
2015,06,30,11,28,23.70
2015,06,30,11,29,23.70
2015,06,30,11,30,23.60
2015,06,30,11,31,23.60
2015,06,30,11,32,23.50
2015,06,30,11,33,23.40
2015,06,30,11,34,23.40
2015,06,30,11,35,23.30
2015,06,30,11,36,23.30
2015,06,30,11,37,23.20
2015,06,30,11,38,23.20
2015,06,30,11,39,23.20
2015,06,30,11,40,23.20
2015,06,30,11,41,23.20
2015,06,30,11,42,23.20
2015,06,30,11,43,23.20
2015,06,30,11,44,23.20
2015,06,30,11,45,23.20
2015,06,30,11,46,23.20
2015,06,30,11,47,23.30
2015,06,30,11,48,23.30
2015,06,30,11,49,23.20
2015,06,30,11,50,23.20
2015,06,30,11,51,23.20
2015,06,30,11,52,23.20
2015,06,30,11,53,23.20
2015,06,30,11,54,23.10
2015,06,30,11,55,23.10
2015,06,30,11,56,23.10
2015,06,30,11,57,23.10
2015,06,30,11,58,23.10
2015,06,30,11,59,23.10
2015,06,30,12,00,23.10
2015,06,30,12,01,23.00
2015,06,30,12,02,23.00
2015,06,30,12,03,23.00
2015,06,30,12,04,23.10
2015,06,30,12,05,23.10
2015,06,30,12,06,23.20
2015,06,30,12,07,23.20
2015,06,30,12,08,23.30
2015,06,30,12,09,23.40
2015,06,30,12,10,23.50
2015,06,30,12,11,23.60
2015,06,30,12,12,23.70
2015,06,30,12,13,23.70
2015,06,30,12,14,23.60
2015,06,30,12,15,23.60
2015,06,30,12,16,23.50
2015,06,30,12,17,23.60
2015,06,30,12,18,23.60
2015,06,30,12,19,23.70
2015,06,30,12,20,23.80
2015,06,30,12,21,23.80
2015,06,30,12,22,23.80
2015,06,30,12,23,23.80
2015,06,30,12,24,23.90
2015,06,30,12,25,24.00
2015,06,30,12,26,24.00
2015,06,30,12,27,24.00
2015,06,30,12,28,24.00
2015,06,30,12,29,24.10
2015,06,30,12,30,24.10
2015,06,30,12,31,24.00
2015,06,30,12,32,24.00
2015,06,30,12,33,23.90
2015,06,30,12,34,23.80
2015,06,30,12,35,23.70
2015,06,30,12,36,23.70
2015,06,30,12,37,23.60
2015,06,30,12,38,23.60
2015,06,30,12,39,23.60
2015,06,30,12,40,23.70
2015,06,30,12,41,23.70
2015,06,30,12,42,23.70
2015,06,30,12,43,23.80
2015,06,30,12,44,23.70
2015,06,30,12,45,23.70
2015,06,30,12,46,23.70
2015,06,30,12,47,23.70
2015,06,30,12,48,23.70
2015,06,30,12,49,23.80
2015,06,30,12,50,23.80
2015,06,30,12,51,23.80
2015,06,30,12,52,23.80
2015,06,30,12,53,23.70
2015,06,30,12,54,23.70
2015,06,30,12,55,23.70
2015,06,30,12,56,23.80
2015,06,30,12,57,23.80
2015,06,30,12,58,23.90
2015,06,30,12,59,24.00
2015,06,30,13,00,23.90
2015,06,30,13,01,23.90
2015,06,30,13,02,23.80
2015,06,30,13,03,23.80
2015,06,30,13,04,23.70
2015,06,30,13,05,23.70
2015,06,30,13,06,23.70
2015,06,30,13,07,23.80
2015,06,30,13,08,23.80
2015,06,30,13,09,23.80
2015,06,30,13,10,23.90
2015,06,30,13,11,24.10
2015,06,30,13,12,24.20
2015,06,30,13,13,24.30
2015,06,30,13,14,24.40
2015,06,30,13,15,24.50
2015,06,30,13,16,24.50
2015,06,30,13,17,24.50
2015,06,30,13,18,24.40
2015,06,30,13,19,24.40
2015,06,30,13,20,24.40
2015,06,30,13,21,24.40
2015,06,30,13,22,24.40
2015,06,30,13,23,24.50
2015,06,30,13,24,24.50
2015,06,30,13,25,24.60
2015,06,30,13,26,24.60
2015,06,30,13,27,24.60
2015,06,30,13,28,24.60
2015,06,30,13,29,24.70
2015,06,30,13,30,24.70
2015,06,30,13,31,24.70
2015,06,30,13,32,24.70
2015,06,30,13,33,24.70
2015,06,30,13,34,24.70
2015,06,30,13,35,24.70
2015,06,30,13,36,24.60
2015,06,30,13,37,24.60
2015,06,30,13,38,24.60
2015,06,30,13,39,24.60
2015,06,30,13,40,24.60
2015,06,30,13,41,24.60
2015,06,30,13,42,24.60
2015,06,30,13,43,24.60
2015,06,30,13,44,24.70
2015,06,30,13,45,24.80
2015,06,30,13,46,24.80
2015,06,30,13,47,24.80
2015,06,30,13,48,24.90
2015,06,30,13,49,24.90
2015,06,30,13,50,25.00
2015,06,30,13,51,25.10
2015,06,30,13,52,25.10
2015,06,30,13,53,25.10
2015,06,30,13,54,25.10
2015,06,30,13,55,25.10
2015,06,30,13,56,25.10
2015,06,30,13,57,25.10
2015,06,30,13,58,25.10
2015,06,30,13,59,25.00
2015,06,30,14,00,24.90
2015,06,30,14,01,24.90
2015,06,30,14,02,24.80
2015,06,30,14,03,24.90
2015,06,30,14,04,25.00
2015,06,30,14,05,25.10
2015,06,30,14,06,25.10
2015,06,30,14,07,25.20
2015,06,30,14,08,25.20
2015,06,30,14,09,25.20
2015,06,30,14,10,25.10
2015,06,30,14,11,25.10
2015,06,30,14,12,25.20
2015,06,30,14,13,25.20
2015,06,30,14,14,25.20
2015,06,30,14,15,25.20
2015,06,30,14,16,25.30
2015,06,30,14,17,25.30
2015,06,30,14,18,25.30
2015,06,30,14,19,25.30
2015,06,30,14,20,25.40
2015,06,30,14,21,25.50
2015,06,30,14,22,25.50
2015,06,30,14,23,25.60
2015,06,30,14,24,25.70
2015,06,30,14,25,25.70
2015,06,30,14,26,25.70
2015,06,30,14,27,25.60
2015,06,30,14,28,25.60
2015,06,30,14,29,25.50
2015,06,30,14,30,25.40
2015,06,30,14,31,25.40
2015,06,30,14,32,25.40
2015,06,30,14,33,25.50
2015,06,30,14,34,25.50
2015,06,30,14,35,25.60
2015,06,30,14,36,25.60
2015,06,30,14,37,25.60
2015,06,30,14,38,25.60
2015,06,30,14,39,25.60
2015,06,30,14,40,25.60
2015,06,30,14,41,25.60
2015,06,30,14,42,25.80
2015,06,30,14,43,25.90
2015,06,30,14,44,25.90
2015,06,30,14,45,25.90
2015,06,30,14,46,25.90
2015,06,30,14,47,25.80
2015,06,30,14,48,25.70
2015,06,30,14,49,25.70
2015,06,30,14,50,25.60
2015,06,30,14,51,25.50
2015,06,30,14,52,25.40
2015,06,30,14,53,25.30
2015,06,30,14,54,25.30
2015,06,30,14,55,25.30
2015,06,30,14,56,25.30
2015,06,30,14,57,25.30
2015,06,30,14,58,25.30
2015,06,30,14,59,25.30
2015,06,30,15,00,25.30
2015,06,30,15,01,25.30
2015,06,30,15,02,25.30
2015,06,30,15,03,25.30
2015,06,30,15,04,25.30
2015,06,30,15,05,25.30
2015,06,30,15,06,25.30
2015,06,30,15,07,25.30
2015,06,30,15,08,25.30
2015,06,30,15,09,25.20
2015,06,30,15,10,25.10
2015,06,30,15,11,25.00
2015,06,30,15,12,25.00
2015,06,30,15,13,25.00
2015,06,30,15,14,25.00
2015,06,30,15,15,25.10
2015,06,30,15,16,25.10
2015,06,30,15,17,25.10
2015,06,30,15,18,25.20
2015,06,30,15,19,25.20
2015,06,30,15,20,25.30
2015,06,30,15,21,25.40
2015,06,30,15,22,25.50
2015,06,30,15,23,25.50
2015,06,30,15,24,25.50
2015,06,30,15,25,25.40
2015,06,30,15,26,25.40
2015,06,30,15,27,25.40
2015,06,30,15,28,25.40
2015,06,30,15,29,25.50
2015,06,30,15,30,25.50
2015,06,30,15,31,25.60
2015,06,30,15,32,25.60
2015,06,30,15,33,25.60
2015,06,30,15,34,25.70
2015,06,30,15,35,25.80
2015,06,30,15,36,25.90
2015,06,30,15,37,25.90
2015,06,30,15,38,26.00
2015,06,30,15,39,26.10
2015,06,30,15,40,26.20
2015,06,30,15,41,26.20
2015,06,30,15,42,26.30
2015,06,30,15,43,26.30
2015,06,30,15,44,26.40
2015,06,30,15,45,26.50
2015,06,30,15,46,26.50
2015,06,30,15,47,26.50
2015,06,30,15,48,26.50
2015,06,30,15,49,26.40
2015,06,30,15,50,26.30
2015,06,30,15,51,26.30
2015,06,30,15,52,26.20
2015,06,30,15,53,26.30
2015,06,30,15,54,26.30
2015,06,30,15,55,26.30
2015,06,30,15,56,26.20
2015,06,30,15,57,26.20
2015,06,30,15,58,26.10
2015,06,30,15,59,26.10
2015,06,30,16,00,26.10
2015,06,30,16,01,26.20
2015,06,30,16,02,26.20
2015,06,30,16,03,26.10
2015,06,30,16,04,26.10
2015,06,30,16,05,26.10
2015,06,30,16,06,26.10
2015,06,30,16,07,26.00
2015,06,30,16,08,25.90
2015,06,30,16,09,25.90
2015,06,30,16,10,25.90
2015,06,30,16,11,25.90
2015,06,30,16,12,25.90
2015,06,30,16,13,25.90
2015,06,30,16,14,25.90
2015,06,30,16,15,25.90
2015,06,30,16,16,25.90
2015,06,30,16,17,25.90
2015,06,30,16,18,25.90
2015,06,30,16,19,25.90
2015,06,30,16,20,25.90
2015,06,30,16,21,25.90
2015,06,30,16,22,25.90
2015,06,30,16,23,25.90
2015,06,30,16,24,25.90
2015,06,30,16,25,25.90
2015,06,30,16,26,25.90
2015,06,30,16,27,25.90
2015,06,30,16,28,25.80
2015,06,30,16,29,25.80
2015,06,30,16,30,25.80
2015,06,30,16,31,25.80
2015,06,30,16,32,25.80
2015,06,30,16,33,25.80
2015,06,30,16,34,25.70
2015,06,30,16,35,25.70
2015,06,30,16,36,25.70
2015,06,30,16,37,25.70
2015,06,30,16,38,25.80
2015,06,30,16,39,25.80
2015,06,30,16,40,25.90
2015,06,30,16,41,25.90
2015,06,30,16,42,25.90
2015,06,30,16,43,25.90
2015,06,30,16,44,25.90
2015,06,30,16,45,25.90
2015,06,30,16,46,25.90
2015,06,30,16,47,25.90
2015,06,30,16,48,25.90
2015,06,30,16,49,25.90
2015,06,30,16,50,25.90
2015,06,30,16,51,25.90
2015,06,30,16,52,25.80
2015,06,30,16,53,25.80
2015,06,30,16,54,25.80
2015,06,30,16,55,25.80
2015,06,30,16,56,25.80
2015,06,30,16,57,25.80
2015,06,30,16,58,25.80
2015,06,30,16,59,25.90
2015,06,30,17,00,25.90
2015,06,30,17,01,25.90
2015,06,30,17,02,25.90
2015,06,30,17,03,25.90
2015,06,30,17,04,25.90
2015,06,30,17,05,25.90
2015,06,30,17,06,26.00
2015,06,30,17,07,25.90
2015,06,30,17,08,25.90
2015,06,30,17,09,25.90
2015,06,30,17,10,25.90
2015,06,30,17,11,26.00
2015,06,30,17,12,26.00
2015,06,30,17,13,26.00
2015,06,30,17,14,26.00
2015,06,30,17,15,25.90
2015,06,30,17,16,25.90
2015,06,30,17,17,25.80
2015,06,30,17,18,25.80
2015,06,30,17,19,25.70